Weather History for KBDE - December, 2013

Change the Weather History Date:

Monday, December 2, 2013

  Actual Average Record
Temperature  
Mean Temperature 16 °F -  
Max Temperature 25 °F 22 °F 53 °F (1962)
Min Temperature 6 °F 6 °F -28 °F (1976)
Degree Days  
Heating Degree Days 50    
Moisture  
Dew Point 18 °F    
Average Humidity 87    
Maximum Humidity 96    
Minimum Humidity 80    
Precipitation  
Precipitation 0.00 in - - ()
Sea Level Pressure  
Sea Level Pressure 29.82 in    
Wind  
Wind Speed 9 mph (ENE)    
Max Wind Speed 16 mph    
Max Gust Speed 20 mph    
Visibility 5 miles    
Events Snow    
Averages and records for this station are not official NWS values.
T = Trace of Precipitation, MM = Missing Value Source: NWS Daily Summary

Daily Weather History Graph

Daily Weather History Graph

Search for Another Location

Airport or City:

Trip Planner

Search our weather history database for the weather conditions in past years. The results will help you decide how hot, cold, wet, or windy it might be!

Date:

Astronomy

Dec. 02, 2013 Rise Set
Actual Time 7:51 AM CST 4:24 PM CST
Civil Twilight 7:15 AM CST 5:00 PM CST
Nautical Twilight 6:35 AM CST 5:40 PM CST
Astronomical Twilight 5:57 AM CST 6:18 PM CST
Moon 7:14 AM CST (12/2) 4:30 PM CST (12/2)
Length of Visible Light 9h 45m
Length of Day
8h 32m
Waning Crescent, 0% of the Moon is Illuminated
Dec 2
Waning Crescent
Dec 2
New
Dec 9
First Quarter
Dec 17
Full
Dec 25
Last Quarter

Hourly Weather History & Observations

Time (CST) Temp. Windchill Dew Point Humidity Pressure Visibility Wind Dir Wind Speed Gust Speed Precip Events Conditions
12:42 AM 6.1 °F -0.9 °F 3.9 °F 91% 29.93 in 10.0 mi SE 3.5 mph - N/A   Partly Cloudy
12:53 AM 8.1 °F -0.5 °F 5.0 °F 87% 29.99 in 10.0 mi East 4.6 mph - N/A   Partly Cloudy
1:53 AM 7.0 °F -1.7 °F 5.0 °F 92% 29.98 in 10.0 mi East 4.6 mph - N/A   Partly Cloudy
2:32 AM 9.0 °F 0.6 °F 7.0 °F 92% 29.90 in 10.0 mi ESE 4.6 mph - N/A   Mostly Cloudy
2:53 AM 10.0 °F 1.8 °F 7.0 °F 87% 29.95 in 10.0 mi East 4.6 mph - N/A   Overcast
3:53 AM 14.0 °F 6.5 °F 10.9 °F 88% 29.93 in 10.0 mi East 4.6 mph - N/A   Overcast
4:53 AM 17.1 °F 10.0 °F 14.0 °F 88% 29.90 in 10.0 mi East 4.6 mph - N/A   Overcast
5:53 AM 17.1 °F 7.6 °F 15.1 °F 92% 29.89 in 10.0 mi East 6.9 mph - N/A   Overcast
6:53 AM 18.0 °F 9.8 °F 16.0 °F 92% 29.88 in 4.0 mi East 5.8 mph - 0.00 in Snow Light Snow
7:41 AM 19.0 °F 7.5 °F 17.1 °F 92% 29.80 in 10.0 mi East 10.4 mph - 0.00 in   Overcast
7:53 AM 19.0 °F 8.2 °F 17.1 °F 92% 29.87 in 10.0 mi East 9.2 mph - 0.00 in   Overcast
8:07 AM 19.0 °F 9.0 °F 17.1 °F 92% 29.81 in 10.0 mi East 8.1 mph - N/A   Overcast
8:53 AM 19.9 °F 9.3 °F 18.0 °F 92% 29.87 in 7.0 mi East 9.2 mph - 0.00 in Snow Light Snow
9:11 AM 19.9 °F 10.1 °F 18.0 °F 92% 29.80 in 1.8 mi ENE 8.1 mph - 0.00 in Snow Light Snow
9:24 AM 19.9 °F 10.1 °F 19.0 °F 96% 29.80 in 2.0 mi ENE 8.1 mph - 0.00 in Snow Light Snow
9:36 AM 21.0 °F 11.4 °F 19.0 °F 92% 29.80 in 5.0 mi East 8.1 mph - 0.00 in Snow Light Snow
9:53 AM 21.9 °F 12.5 °F 19.0 °F 89% 29.86 in 2.5 mi ENE 8.1 mph - 0.00 in Snow Light Snow
10:02 AM 21.9 °F 12.5 °F 19.9 °F 92% 29.79 in 1.5 mi East 8.1 mph - 0.00 in Snow Light Snow
10:17 AM 23.0 °F 10.6 °F 19.9 °F 88% 29.79 in 1.2 mi East 13.8 mph - 0.00 in Snow Light Snow
10:25 AM 23.0 °F 11.7 °F 19.9 °F 88% 29.79 in 2.0 mi East 11.5 mph - 0.00 in Snow Light Snow
10:37 AM 24.1 °F 13.7 °F 19.9 °F 84% 29.79 in 2.5 mi East 10.4 mph - 0.00 in Snow Light Snow
10:48 AM 24.8 °F 14.0 °F 19.4 °F 80% 29.79 in 3.0 mi East 11.5 mph - 0.00 in Snow Light Snow
10:53 AM 24.1 °F 12.5 °F 19.9 °F 84% 29.86 in 3.0 mi East 12.7 mph - 0.00 in Snow Light Snow
11:02 AM 24.1 °F 12.5 °F 19.9 °F 84% 29.79 in 2.0 mi East 12.7 mph - 0.00 in Snow Light Snow
11:09 AM 24.1 °F 14.4 °F 21.0 °F 88% 29.79 in 3.0 mi East 9.2 mph - 0.00 in Snow Light Snow
11:43 AM 25.0 °F 12.2 °F 19.9 °F 81% 29.78 in 9.0 mi East 16.1 mph - 0.00 in Snow Light Snow
11:53 AM 25.0 °F 13.1 °F 19.9 °F 81% 29.85 in 8.0 mi East 13.8 mph - 0.00 in Snow Light Snow
12:15 PM 25.0 °F 13.1 °F 19.9 °F 81% 29.77 in 2.0 mi East 13.8 mph - 0.00 in Snow Light Snow
12:23 PM 25.0 °F 13.6 °F 21.0 °F 85% 29.77 in 1.5 mi East 12.7 mph - 0.00 in Snow Light Snow
12:32 PM 25.0 °F 14.2 °F 19.9 °F 81% 29.77 in 3.0 mi East 11.5 mph - 0.00 in Snow Light Snow
12:53 PM 25.0 °F 12.2 °F 19.9 °F 81% 29.83 in 5.0 mi East 16.1 mph - 0.00 in Snow Light Snow
1:02 PM 25.0 °F 12.6 °F 19.9 °F 81% 29.76 in 8.0 mi East 15.0 mph - 0.00 in Snow Light Snow
1:53 PM 25.0 °F 14.2 °F 19.9 °F 81% 29.83 in 4.0 mi ENE 11.5 mph - 0.00 in Snow Light Snow
2:06 PM 25.0 °F 13.6 °F 19.9 °F 81% 29.75 in 2.5 mi ENE 12.7 mph - 0.00 in Snow Light Snow
2:21 PM 24.1 °F 11.5 °F 19.9 °F 84% 29.74 in 3.0 mi ENE 15.0 mph - 0.00 in Snow Light Snow
2:53 PM 25.0 °F 13.1 °F 19.9 °F 81% 29.81 in 3.0 mi ENE 13.8 mph - 0.00 in Snow Light Snow
3:32 PM 24.1 °F 11.5 °F 21.0 °F 88% 29.74 in 2.0 mi ENE 15.0 mph - 0.00 in Snow Light Snow
3:38 PM 24.1 °F 13.1 °F 21.0 °F 88% 29.74 in 1.2 mi ENE 11.5 mph 19.6 mph 0.00 in Snow Light Snow
3:53 PM 24.1 °F 13.1 °F 21.0 °F 88% 29.81 in 1.8 mi ENE 11.5 mph - 0.00 in Snow Light Snow
4:00 PM 24.1 °F 12.5 °F 21.0 °F 88% 29.74 in 2.5 mi ENE 12.7 mph - 0.00 in Snow Light Snow
4:08 PM 24.1 °F 12.0 °F 21.0 °F 88% 29.74 in 3.0 mi ENE 13.8 mph - 0.00 in Snow Light Snow
4:19 PM 24.1 °F 11.0 °F 21.0 °F 88% 29.74 in 1.8 mi ENE 16.1 mph - 0.00 in Snow Light Snow
4:39 PM 24.1 °F 11.5 °F 21.0 °F 88% 29.75 in 3.0 mi ENE 15.0 mph - 0.00 in Snow Light Snow
4:53 PM 24.1 °F 13.1 °F 21.0 °F 88% 29.81 in 4.0 mi ENE 11.5 mph - 0.00 in Snow Light Snow
5:53 PM 23.0 °F 11.1 °F 19.9 °F 88% 29.83 in 8.0 mi ENE 12.7 mph - 0.00 in Snow Light Snow
6:53 PM 23.0 °F 11.7 °F 19.9 °F 88% 29.83 in 3.0 mi NE 11.5 mph - 0.00 in Snow Light Snow
7:06 PM 23.0 °F 11.1 °F 19.9 °F 88% 29.77 in 4.0 mi NE 12.7 mph - 0.00 in Snow Light Snow
7:20 PM 23.0 °F 12.4 °F 19.9 °F 88% 29.77 in 4.0 mi NE 10.4 mph - 0.00 in Snow Light Snow
7:51 PM 23.0 °F 11.7 °F 19.4 °F 86% 29.78 in 2.5 mi NE 11.5 mph - 0.00 in Snow Light Snow
7:53 PM 23.0 °F 11.1 °F 19.9 °F 88% 29.84 in 2.5 mi NE 12.7 mph - 0.00 in Snow Light Snow
8:08 PM 21.9 °F 10.4 °F 19.0 °F 89% 29.78 in 2.0 mi NE 11.5 mph - 0.00 in Snow Light Snow
8:53 PM 21.9 °F 10.4 °F 19.0 °F 89% 29.85 in 2.5 mi NE 11.5 mph - 0.00 in Snow Light Snow
9:07 PM 21.9 °F 9.2 °F 19.0 °F 89% 29.79 in 4.0 mi NE 13.8 mph - 0.00 in Snow Light Snow
9:19 PM 21.9 °F 10.4 °F 19.0 °F 89% 29.80 in 7.0 mi NE 11.5 mph - 0.00 in Snow Light Snow
9:53 PM 21.9 °F 11.7 °F 18.0 °F 85% 29.86 in 4.0 mi NE 9.2 mph - 0.00 in Snow Light Snow
10:49 PM 21.2 °F 10.9 °F 17.6 °F 86% 29.80 in 2.5 mi NE 9.2 mph - 0.00 in Snow Light Snow
10:53 PM 21.0 °F 9.9 °F 18.0 °F 88% 29.86 in 2.0 mi NE 10.4 mph - 0.00 in Snow Light Snow
10:59 PM 21.0 °F 10.6 °F 18.0 °F 88% 29.80 in 1.8 mi NE 9.2 mph - 0.00 in Snow Light Snow
11:16 PM 21.0 °F 8.6 °F 18.0 °F 88% 29.80 in 2.5 mi NE 12.7 mph - 0.00 in Snow Light Snow
11:22 PM 21.0 °F 9.3 °F 18.0 °F 88% 29.80 in 3.0 mi NE 11.5 mph - 0.00 in Snow Light Snow
11:53 PM 21.0 °F 9.9 °F 18.0 °F 88% 29.86 in 4.0 mi NE 10.4 mph - 0.00 in Snow Light Snow